Meteo Giornale » Osservazioni meteo Germania » Niederrhein

ore: 23:50 - Osservazioni Meteo Niederrhein
Lat. 51° 36' N Lon. 6° 9' E Alt. 32 metri s.l.m.

sereno Europe/Berlin

25 °C

Sereno

Temp. 24 Ore

20 °C

33 °C

Nord

0 Km/h

Dew point 19 °C

Umidità 69 %

Visibilità  10 Km

Il sole sorge alle ore 05:14

Il sole tramonta alle ore 21:57

Data e Ora Cielo e Fenomeni T °C DP °C Um. % Pres. hPa Vis. km Vento km/h
Ieri h: 23:50 sereno Sereno 25 19 69 1013 10 N 0
Ieri h: 23:20 sereno Sereno 25 18 65 1013 10 N 1.8
Ieri h: 22:50 sereno Sereno 26 19 65 1013 10 N 5.5
Ieri h: 22:20 sereno Sereno 26 19 65 1012 10 N 5.5
Ieri h: 21:50 sereno Sereno 27 18 57 1012 10 NO 7.4
Ieri h: 21:20 sereno Sereno 27 18 57 1012 10 NO 11.1
Ieri h: 20:50 sereno Sereno 28 18 54 1011 10 NO 11.1
Ieri h: 20:20 sereno Sereno 29 18 51 1011 10 O/NO 11.1
Ieri h: 19:50 sereno Sereno 30 16 42 1011 10 O/NO 13
Ieri h: 19:20 sereno Sereno 31 16 40 1011 10 O 14.8
Ieri h: 18:50 sereno Sereno 32 16 38 1011 10 O 13
Ieri h: 18:20 sereno Sereno 32 16 38 1011 10 O 14.8
Ieri h: 17:50 sereno Sereno 33 16 36 1011 10 O/SO 18.5
Ieri h: 17:20 sereno Sereno 32 15 35 1010 10 O/SO 18.5
Ieri h: 16:50 sereno Sereno 33 16 36 1010 10 O 20.3
Ieri h: 16:20 sereno Sereno 33 16 36 1010 10 O/SO 22.2
Ieri h: 15:50 sereno Sereno 32 16 38 1010 10 O/SO 24
Ieri h: 15:20 sereno Sereno 32 16 38 1010 10 S 18.5
Ieri h: 14:50 sereno Sereno 33 16 36 1010 10 SO 16.7
Ieri h: 14:20 sereno Sereno 33 17 38 1010 10 SO 20.3
Ieri h: 13:50 sereno Sereno 33 18 41 1010 10 S 16.7
Ieri h: 13:20 sereno Sereno 33 18 41 1010 10 S/SE 18.5
Ieri h: 12:50 sereno Sereno 32 17 40 1009 10 SE 16.7
Ieri h: 12:20 sereno Sereno 31 17 43 1009 10 E/SE 13
Ieri h: 11:50 sereno Sereno 31 17 43 1009 10 N 9.3
Ieri h: 11:20 sereno Sereno 30 16 42 1010 10 N 7.4
Ieri h: 10:50 sereno Sereno 28 16 48 1010 10 S/SO 14.8
Ieri h: 10:20 sereno Sereno 28 16 48 1010 10 S/SO 13
Ieri h: 09:50 sereno Sereno 26 17 57 1011 10 S 13
Ieri h: 09:20 sereno Sereno 25 17 61 1010 10 SE 13
Ieri h: 08:50 sereno Sereno 24 16 60 1010 10 SE 13
Ieri h: 08:20 sereno Sereno 23 17 68 1010 10 SE 11.1
Ieri h: 07:50 sereno Sereno 23 17 68 1010 10 SE 11.1
Ieri h: 07:20 sereno Sereno 22 17 73 1010 10 SE 11.1
Ieri h: 06:50 sereno Sereno 22 16 68 1010 10 SE 11.1
Ieri h: 06:20 sereno Sereno 21 16 73 1009 10 SE 11.1
Ieri h: 05:50 sereno Sereno 21 16 73 1009 10 SE 11.1
Ieri h: 05:20 sereno Sereno 20 16 77 1009 10 SE 11.1
Ieri h: 04:50 sereno Sereno 20 16 77 1009 10 SE 11.1